Location: Unspecified
(0.0000°N, 0.0000°E)
Time: 10:25:37
(UTC+00:00)

MIDAS 4 DEB - Pass Details

Date: 10 November 2025
Orbit: 3271 x 3959 km, 95.8° (Epoch: 26 July)

Event Time Altitude Azimuth Distance (km) Brightness Sun altitude
Exits shadow 23:14:25 28° 268° (W) 5,346 ? -71.1°
Drops below altitude 10° 23:26:33 10° 228° (SW) 6,921 ? -72.1°
Sets 23:32:33 0° 217° (SW) 8,031 ? -72.3°
